FENGYUN 1C DEB, 37423

Orbit data source: Space-Track

FENGYUN 1C DEB, 37423 is space debris in SSO originally from a launch on Mon, 10 May 1999 UTC launched from the Taiyaun Space Center, China (TSC). Fengyun 1C debris stems from the Chinese weather satellite Fengyun-1C, which was intentionally destroyed by a Chinese anti-satellite missile in 2007. This event dramatically increased the amount of space debris, with thousands of trackable fragments posing hazards to satellites and human spaceflight. The Fengyun 1C debris cloud has become a focal point in discussions about space sustainability and the need for international regulations to prevent the creation of new debris.

Loading next visibility...
Identifier
37423, 1999-025EGR
Orbit
SSO
Country
Flag of CNCN / PRC
Related business
Manufacturer
Unknown
Mission
Spacecraft
Bus & Motor
Unknown
Mass
Unknown
Launch date (UTC)
1999-05-10 (27 years ago)
Launch vehicle
Unknown
Launch site
Taiyaun Space Center, China (TSC)
Object type
Payload
Rocket body
Debris
Shape & HBR
Unknown shape, 0.1 m
Radar Cross Section
Small (<0.1 m²)

Expand to show TLE details & history
Last TLE update: 1 week ago

TLE from 1 week ago
0 FENGYUN 1C DEB
1 37423U 99025EGR 26201.86847765  .00000622  00000-0  38710-3 0  9998
2 37423  98.7657 250.9223 0046595 258.2828 101.3111 14.08066879667073
Epoch: 2026-07-20T20:50Z
TLE epoch observation values (Epoch: 2026-07-20T20:50:36.468Z)
Latitude
-0.0001°
Longitude
-0.37598°
Altitude
875.663 km
Speed
7.411 km/s
True Right ascension
16h 43m 41s
True Declination
0° 00' 00"
Sunlit
Object was in full shadow at epoch
Visualization orbit readout
Latitude
Unknown
Longitude
Unknown
Altitude
Unknown
Speed
Unknown
Apparent Right ascension
Unknown
Apparent Declination
Unknown
Sunlit
N/A
Visualization observer readout
Local Sidereal Time
09:06:54
Azimuth
Unknown
Elevation
Unknown
Doppler factor
Unknown
Orbital elements
Apogee altitude
896.912 km
Perigee altitude
829.431 km
Semi-major axis
7,241.309 km
Eccentricity
0.00466
Inclination
98.7657°
RAAN
250.9223°
Arg. of periapsis
258.2828°
True anomaly
101.83406°
Mean anomaly
101.3111°
Eccentric anomaly
101.57264°
Mean motion
3.52223 °/min
Orbital period
102.21 mins
BSTAR
0.0003871
Loading maneuver chart data...
Computing Atmospheric mass density...

Documentation

Showing up to 5 results
|